SUOMI NPP

Last updated on Tue Sep 16 2025 00:02:22 GMT+0000 (Coordinated Universal Time)

1 37849U 11061A 25258.58650796 .00000095 00000+0 65939-4 0 9997 2 37849 98.7619 196.7875 0002298 60.4017 299.7388 14.19516583719483
UTC large
Height (km)
Speed (km/s)
/
Latitude / Longitude
Inclination (degrees)
Orbital Period (minutes)
Azimuth
Elevation
Range (km)
Doppler Factor

Next 0 passes for location: London (51.5072 / 0.1276)

Sorry there are no passes over London.